owner,sensor,date,latitude,longitude,vertical_datum,wind_speed,wind_to_direction,wind_speed_of_gust,qcFlag 
WAVCIS,ioos:station:WAVCIS:CSI03:3,2012-08-01T00:00:00Z,29.4412,-92.0613,10.0,3.86,257.0,,'11111222,11111222,99999999' 
WAVCIS,ioos:station:WAVCIS:CSI03:3,2012-08-01T01:00:00Z,29.4412,-92.0613,10.0,3.86,248.0,,'11111222,11111222,99999999' 
WAVCIS,ioos:station:WAVCIS:CSI03:3,2012-08-01T02:00:00Z,29.4412,-92.0613,10.0,4.431,243.0,,'11111222,11111222,99999999' 
WAVCIS,ioos:station:WAVCIS:CSI03:3,2012-08-01T03:00:00Z,29.4412,-92.0613,10.0,4.213,243.0,,'11111222,11111222,99999999' 
WAVCIS,ioos:station:WAVCIS:CSI03:3,2012-08-01T04:00:00Z,29.4412,-92.0613,10.0,4.327,244.0,,'11111222,11111222,99999999' 
WAVCIS,ioos:station:WAVCIS:CSI03:3,2012-08-01T05:00:00Z,29.4412,-92.0613,10.0,4.252,243.0,,'11111222,11111222,99999999' 
WAVCIS,ioos:station:WAVCIS:CSI03:3,2012-08-01T06:00:00Z,29.4412,-92.0613,10.0,4.745,243.0,,'11111222,11111222,99999999' 
WAVCIS,ioos:station:WAVCIS:CSI03:3,2012-08-01T07:00:00Z,29.4412,-92.0613,10.0,4.329,248.0,,'11111222,11111222,99999999' 
WAVCIS,ioos:station:WAVCIS:CSI03:3,2012-08-01T08:00:00Z,29.4412,-92.0613,10.0,4.583,244.0,,'11111222,11111222,99999999' 
WAVCIS,ioos:station:WAVCIS:CSI03:3,2012-08-01T09:00:00Z,29.4412,-92.0613,10.0,6.47,263.0,,'11111222,11111222,99999999' 
WAVCIS,ioos:station:WAVCIS:CSI03:3,2012-08-01T10:00:00Z,29.4412,-92.0613,10.0,5.783,264.0,,'11111222,11111222,99999999' 
WAVCIS,ioos:station:WAVCIS:CSI03:3,2012-08-01T11:00:00Z,29.4412,-92.0613,10.0,7.23,266.0,,'11111222,11111222,99999999' 
WAVCIS,ioos:station:WAVCIS:CSI03:3,2012-08-01T12:00:00Z,29.4412,-92.0613,10.0,6.794,276.0,,'11111222,11111222,99999999' 
WAVCIS,ioos:station:WAVCIS:CSI03:3,2012-08-01T13:00:00Z,29.4412,-92.0613,10.0,7.82,285.0,,'11111222,11111222,99999999' 
WAVCIS,ioos:station:WAVCIS:CSI03:3,2012-08-01T14:00:00Z,29.4412,-92.0613,10.0,6.542,286.0,,'11111222,11111222,99999999' 
WAVCIS,ioos:station:WAVCIS:CSI03:3,2012-08-01T15:00:00Z,29.4412,-92.0613,10.0,4.919,288.0,,'11111222,11111222,99999999' 
WAVCIS,ioos:station:WAVCIS:CSI03:3,2012-08-01T16:00:00Z,29.4412,-92.0613,10.0,4.131,283.0,,'11111222,11111222,99999999' 
WAVCIS,ioos:station:WAVCIS:CSI03:3,2012-08-01T17:00:00Z,29.4412,-92.0613,10.0,3.388,285.0,,'11111222,11111222,99999999' 
WAVCIS,ioos:station:WAVCIS:CSI03:3,2012-08-01T18:00:00Z,29.4412,-92.0613,10.0,4.174,282.0,,'11111222,11111222,99999999' 
WAVCIS,ioos:station:WAVCIS:CSI03:3,2012-08-01T19:00:00Z,29.4412,-92.0613,10.0,4.887,281.0,,'11111222,11111222,99999999' 
WAVCIS,ioos:station:WAVCIS:CSI03:3,2012-08-01T20:00:00Z,29.4412,-92.0613,10.0,6.129,269.0,,'11111222,11111222,99999999' 
WAVCIS,ioos:station:WAVCIS:CSI03:3,2012-08-01T21:00:00Z,29.4412,-92.0613,10.0,5.31,261.0,,'11111222,11111222,99999999' 
WAVCIS,ioos:station:WAVCIS:CSI03:3,2012-08-01T22:00:00Z,29.4412,-92.0613,10.0,5.426,264.0,,'11111222,11111222,99999999' 
WAVCIS,ioos:station:WAVCIS:CSI03:3,2012-08-01T23:00:00Z,29.4412,-92.0613,10.0,4.483,259.0,,'11111222,11111222,99999999' 
WAVCIS,ioos:station:WAVCIS:CSI03:3,2012-08-02T00:00:00Z,29.4412,-92.0613,10.0,3.862,254.0,,'11111222,11111222,99999999' 
WAVCIS,ioos:station:WAVCIS:CSI03:3,2012-08-02T01:00:00Z,29.4412,-92.0613,10.0,4.141,247.0,,'11111222,11111222,99999999' 
WAVCIS,ioos:station:WAVCIS:CSI03:3,2012-08-02T02:00:00Z,29.4412,-92.0613,10.0,3.765,248.0,,'11111222,11111222,99999999' 
WAVCIS,ioos:station:WAVCIS:CSI03:3,2012-08-02T03:00:00Z,29.4412,-92.0613,10.0,4.277,247.0,,'11111222,11111222,99999999' 
WAVCIS,ioos:station:WAVCIS:CSI03:3,2012-08-02T04:00:00Z,29.4412,-92.0613,10.0,3.899,251.0,,'11111222,11111222,99999999' 
WAVCIS,ioos:station:WAVCIS:CSI03:3,2012-08-02T05:00:00Z,29.4412,-92.0613,10.0,4.285,254.0,,'11111222,11111222,99999999' 
WAVCIS,ioos:station:WAVCIS:CSI03:3,2012-08-02T06:00:00Z,29.4412,-92.0613,10.0,4.414,254.0,,'11111222,11111222,99999999' 
WAVCIS,ioos:station:WAVCIS:CSI03:3,2012-08-02T07:00:00Z,29.4412,-92.0613,10.0,4.45,244.0,,'11111222,11111222,99999999' 
WAVCIS,ioos:station:WAVCIS:CSI03:3,2012-08-02T08:00:00Z,29.4412,-92.0613,10.0,5.495,262.0,,'11111222,11111222,99999999' 
WAVCIS,ioos:station:WAVCIS:CSI03:3,2012-08-02T09:00:00Z,29.4412,-92.0613,10.0,4.39,249.0,,'11111222,11111222,99999999' 
WAVCIS,ioos:station:WAVCIS:CSI03:3,2012-08-02T10:00:00Z,29.4412,-92.0613,10.0,4.197,246.0,,'11111222,11111222,99999999' 
WAVCIS,ioos:station:WAVCIS:CSI03:3,2012-08-02T11:00:00Z,29.4412,-92.0613,10.0,3.974,244.0,,'11111222,11111222,99999999' 
WAVCIS,ioos:station:WAVCIS:CSI03:3,2012-08-02T12:00:00Z,29.4412,-92.0613,10.0,3.575,242.0,,'11111222,11111222,99999999' 
WAVCIS,ioos:station:WAVCIS:CSI03:3,2012-08-02T13:00:00Z,29.4412,-92.0613,10.0,3.258,248.0,,'11111222,11111222,99999999' 
WAVCIS,ioos:station:WAVCIS:CSI03:3,2012-08-02T14:00:00Z,29.4412,-92.0613,10.0,1.193,250.0,,'11111222,11111222,99999999' 
WAVCIS,ioos:station:WAVCIS:CSI03:3,2012-08-02T15:00:00Z,29.4412,-92.0613,10.0,1.074,239.0,,'11111222,11111222,99999999' 
WAVCIS,ioos:station:WAVCIS:CSI03:3,2012-08-02T16:00:00Z,29.4412,-92.0613,10.0,1.717,268.0,,'11111222,11111222,99999999' 
WAVCIS,ioos:station:WAVCIS:CSI03:3,2012-08-02T17:00:00Z,29.4412,-92.0613,10.0,1.997,261.0,,'11111222,11111222,99999999' 
WAVCIS,ioos:station:WAVCIS:CSI03:3,2012-08-02T18:00:00Z,29.4412,-92.0613,10.0,2.696,252.0,,'11111222,11111222,99999999' 
WAVCIS,ioos:station:WAVCIS:CSI03:3,2012-08-02T19:00:00Z,29.4412,-92.0613,10.0,2.634,248.0,,'11111222,11111222,99999999' 
WAVCIS,ioos:station:WAVCIS:CSI03:3,2012-08-02T20:00:00Z,29.4412,-92.0613,10.0,4.642,270.0,,'11111222,11111222,99999999' 
WAVCIS,ioos:station:WAVCIS:CSI03:3,2012-08-02T21:00:00Z,29.4412,-92.0613,10.0,2.979,259.0,,'11111222,11111222,99999999' 
WAVCIS,ioos:station:WAVCIS:CSI03:3,2012-08-02T22:00:00Z,29.4412,-92.0613,10.0,3.801,247.0,,'11111222,11111222,99999999' 
WAVCIS,ioos:station:WAVCIS:CSI03:3,2012-08-02T23:00:00Z,29.4412,-92.0613,10.0,3.446,245.0,,'11111222,11111222,99999999' 
WAVCIS,ioos:station:WAVCIS:CSI03:3,2012-08-03T00:00:00Z,29.4412,-92.0613,10.0,4.037,245.0,,'11111222,11111222,99999999' 
WAVCIS,ioos:station:WAVCIS:CSI03:3,2012-08-03T01:00:00Z,29.4412,-92.0613,10.0,3.106,243.0,,'11111222,11111222,99999999' 
WAVCIS,ioos:station:WAVCIS:CSI03:3,2012-08-03T02:00:00Z,29.4412,-92.0613,10.0,2.013,238.0,,'11111222,11111222,99999999' 
WAVCIS,ioos:station:WAVCIS:CSI03:3,2012-08-03T03:00:00Z,29.4412,-92.0613,10.0,0.458,198.0,,'11111222,11111222,99999999' 
WAVCIS,ioos:station:WAVCIS:CSI03:3,2012-08-03T04:00:00Z,29.4412,-92.0613,10.0,0.619,216.0,,'11111222,11111222,99999999' 
WAVCIS,ioos:station:WAVCIS:CSI03:3,2012-08-03T05:00:00Z,29.4412,-92.0613,10.0,2.855,238.0,,'11111222,11111222,99999999' 
WAVCIS,ioos:station:WAVCIS:CSI03:3,2012-08-03T06:00:00Z,29.4412,-92.0613,10.0,1.623,218.0,,'11111222,11111222,99999999' 
WAVCIS,ioos:station:WAVCIS:CSI03:3,2012-08-03T07:00:00Z,29.4412,-92.0613,10.0,4.062,235.0,,'11111222,11111222,99999999' 
WAVCIS,ioos:station:WAVCIS:CSI03:3,2012-08-03T08:00:00Z,29.4412,-92.0613,10.0,2.972,235.0,,'11111222,11111222,99999999' 
WAVCIS,ioos:station:WAVCIS:CSI03:3,2012-08-03T09:00:00Z,29.4412,-92.0613,10.0,1.106,224.0,,'11111222,11111222,99999999' 
WAVCIS,ioos:station:WAVCIS:CSI03:3,2012-08-03T10:00:00Z,29.4412,-92.0613,10.0,1.721,231.0,,'11111222,11111222,99999999' 
WAVCIS,ioos:station:WAVCIS:CSI03:3,2012-08-03T11:00:00Z,29.4412,-92.0613,10.0,3.399,237.0,,'11111222,11111222,99999999' 
WAVCIS,ioos:station:WAVCIS:CSI03:3,2012-08-03T12:00:00Z,29.4412,-92.0613,10.0,1.787,230.0,,'11111222,11111222,99999999' 
WAVCIS,ioos:station:WAVCIS:CSI03:3,2012-08-03T13:00:00Z,29.4412,-92.0613,10.0,0.61,204.0,,'11111222,11111222,99999999' 
WAVCIS,ioos:station:WAVCIS:CSI03:3,2012-08-03T14:00:00Z,29.4412,-92.0613,10.0,2.064,238.0,,'11111222,11111222,99999999' 
WAVCIS,ioos:station:WAVCIS:CSI03:3,2012-08-03T15:00:00Z,29.4412,-92.0613,10.0,4.237,244.0,,'11111222,11111222,99999999' 
WAVCIS,ioos:station:WAVCIS:CSI03:3,2012-08-03T16:00:00Z,29.4412,-92.0613,10.0,3.527,248.0,,'11111222,11111222,99999999' 
WAVCIS,ioos:station:WAVCIS:CSI03:3,2012-08-03T17:00:00Z,29.4412,-92.0613,10.0,2.755,248.0,,'11111222,11111222,99999999' 
WAVCIS,ioos:station:WAVCIS:CSI03:3,2012-08-03T18:00:00Z,29.4412,-92.0613,10.0,3.65,242.0,,'11111222,11111222,99999999' 
WAVCIS,ioos:station:WAVCIS:CSI03:3,2012-08-03T19:00:00Z,29.4412,-92.0613,10.0,3.041,254.0,,'11111222,11111222,99999999' 
WAVCIS,ioos:station:WAVCIS:CSI03:3,2012-08-03T20:00:00Z,29.4412,-92.0613,10.0,2.866,257.0,,'11111222,11111222,99999999' 
WAVCIS,ioos:station:WAVCIS:CSI03:3,2012-08-03T21:00:00Z,29.4412,-92.0613,10.0,3.626,259.0,,'11111222,11111222,99999999' 
WAVCIS,ioos:station:WAVCIS:CSI03:3,2012-08-03T22:00:00Z,29.4412,-92.0613,10.0,3.469,262.0,,'11111222,11111222,99999999' 
WAVCIS,ioos:station:WAVCIS:CSI03:3,2012-08-03T23:00:00Z,29.4412,-92.0613,10.0,2.326,253.0,,'11111222,11111222,99999999' 
WAVCIS,ioos:station:WAVCIS:CSI03:3,2012-08-04T00:00:00Z,29.4412,-92.0613,10.0,1.542,252.0,,'11111222,11111222,99999999' 
WAVCIS,ioos:station:WAVCIS:CSI03:3,2012-08-04T01:00:00Z,29.4412,-92.0613,10.0,2.124,246.0,,'11111222,11111222,99999999' 
WAVCIS,ioos:station:WAVCIS:CSI03:3,2012-08-04T02:00:00Z,29.4412,-92.0613,10.0,1.059,183.0,,'11111222,11111222,99999999' 
WAVCIS,ioos:station:WAVCIS:CSI03:3,2012-08-04T03:00:00Z,29.4412,-92.0613,10.0,1.297,187.0,,'11111222,11111222,99999999' 
WAVCIS,ioos:station:WAVCIS:CSI03:3,2012-08-04T04:00:00Z,29.4412,-92.0613,10.0,2.533,179.0,,'11111222,11111222,99999999' 
WAVCIS,ioos:station:WAVCIS:CSI03:3,2012-08-04T05:00:00Z,29.4412,-92.0613,10.0,4.403,177.0,,'11111222,11111222,99999999' 
WAVCIS,ioos:station:WAVCIS:CSI03:3,2012-08-04T06:00:00Z,29.4412,-92.0613,10.0,3.709,179.0,,'11111222,11111222,99999999' 
WAVCIS,ioos:station:WAVCIS:CSI03:3,2012-08-04T07:00:00Z,29.4412,-92.0613,10.0,1.999,189.0,,'11111222,11111222,99999999' 
WAVCIS,ioos:station:WAVCIS:CSI03:3,2012-08-04T08:00:00Z,29.4412,-92.0613,10.0,2.881,211.0,,'11111222,11111222,99999999' 
WAVCIS,ioos:station:WAVCIS:CSI03:3,2012-08-04T09:00:00Z,29.4412,-92.0613,10.0,2.9,209.0,,'11111222,11111222,99999999' 
WAVCIS,ioos:station:WAVCIS:CSI03:3,2012-08-04T10:00:00Z,29.4412,-92.0613,10.0,2.18,211.0,,'11111222,11111222,99999999' 
WAVCIS,ioos:station:WAVCIS:CSI03:3,2012-08-04T11:00:00Z,29.4412,-92.0613,10.0,2.575,201.0,,'11111222,11111222,99999999' 
WAVCIS,ioos:station:WAVCIS:CSI03:3,2012-08-04T12:00:00Z,29.4412,-92.0613,10.0,1.298,198.0,,'11111222,11111222,99999999' 
WAVCIS,ioos:station:WAVCIS:CSI03:3,2012-08-04T13:00:00Z,29.4412,-92.0613,10.0,1.393,192.0,,'11111222,11111222,99999999' 
WAVCIS,ioos:station:WAVCIS:CSI03:3,2012-08-04T14:00:00Z,29.4412,-92.0613,10.0,1.411,171.0,,'11111222,11111222,99999999' 
WAVCIS,ioos:station:WAVCIS:CSI03:3,2012-08-04T15:00:00Z,29.4412,-92.0613,10.0,2.166,119.0,,'11111222,11111222,99999999' 
WAVCIS,ioos:station:WAVCIS:CSI03:3,2012-08-04T16:00:00Z,29.4412,-92.0613,10.0,3.128,129.0,,'11111222,11111222,99999999' 
WAVCIS,ioos:station:WAVCIS:CSI03:3,2012-08-04T17:00:00Z,29.4412,-92.0613,10.0,3.258,149.0,,'11111222,11111222,99999999' 
WAVCIS,ioos:station:WAVCIS:CSI03:3,2012-08-04T18:00:00Z,29.4412,-92.0613,10.0,2.414,190.0,,'11111222,11111222,99999999' 
WAVCIS,ioos:station:WAVCIS:CSI03:3,2012-08-04T19:00:00Z,29.4412,-92.0613,10.0,2.417,184.0,,'11111222,11111222,99999999' 
WAVCIS,ioos:station:WAVCIS:CSI03:3,2012-08-04T20:00:00Z,29.4412,-92.0613,10.0,3.983,179.0,,'11111222,11111222,99999999' 
WAVCIS,ioos:station:WAVCIS:CSI03:3,2012-08-04T21:00:00Z,29.4412,-92.0613,10.0,6.447,144.0,,'11111222,11111222,99999999' 
WAVCIS,ioos:station:WAVCIS:CSI03:3,2012-08-04T22:00:00Z,29.4412,-92.0613,10.0,6.175,145.0,,'11111222,11111222,99999999' 
WAVCIS,ioos:station:WAVCIS:CSI03:3,2012-08-04T23:00:00Z,29.4412,-92.0613,10.0,4.967,156.0,,'11111222,11111222,99999999' 
WAVCIS,ioos:station:WAVCIS:CSI03:3,2012-08-05T00:00:00Z,29.4412,-92.0613,10.0,3.702,156.0,,'11111222,11111222,99999999' 
WAVCIS,ioos:station:WAVCIS:CSI03:3,2012-08-05T01:00:00Z,29.4412,-92.0613,10.0,4.55,146.0,,'11111222,11111222,99999999' 
WAVCIS,ioos:station:WAVCIS:CSI03:3,2012-08-05T02:00:00Z,29.4412,-92.0613,10.0,3.475,152.0,,'11111222,11111222,99999999' 
WAVCIS,ioos:station:WAVCIS:CSI03:3,2012-08-05T03:00:00Z,29.4412,-92.0613,10.0,2.35,143.0,,'11111222,11111222,99999999' 
WAVCIS,ioos:station:WAVCIS:CSI03:3,2012-08-05T04:00:00Z,29.4412,-92.0613,10.0,3.643,131.0,,'11111222,11111222,99999999' 
WAVCIS,ioos:station:WAVCIS:CSI03:3,2012-08-05T05:00:00Z,29.4412,-92.0613,10.0,4.588,135.0,,'11111222,11111222,99999999' 
WAVCIS,ioos:station:WAVCIS:CSI03:3,2012-08-05T06:00:00Z,29.4412,-92.0613,10.0,6.42,148.0,,'11111222,11111222,99999999' 
WAVCIS,ioos:station:WAVCIS:CSI03:3,2012-08-05T07:00:00Z,29.4412,-92.0613,10.0,5.5,149.0,,'11111222,11111222,99999999' 
WAVCIS,ioos:station:WAVCIS:CSI03:3,2012-08-05T08:00:00Z,29.4412,-92.0613,10.0,4.14,151.0,,'11111222,11111222,99999999' 
WAVCIS,ioos:station:WAVCIS:CSI03:3,2012-08-05T09:00:00Z,29.4412,-92.0613,10.0,3.324,152.0,,'11111222,11111222,99999999' 
WAVCIS,ioos:station:WAVCIS:CSI03:3,2012-08-05T10:00:00Z,29.4412,-92.0613,10.0,2.465,181.0,,'11111222,11111222,99999999' 
WAVCIS,ioos:station:WAVCIS:CSI03:3,2012-08-05T11:00:00Z,29.4412,-92.0613,10.0,2.321,189.0,,'11111222,11111222,99999999' 
WAVCIS,ioos:station:WAVCIS:CSI03:3,2012-08-05T12:00:00Z,29.4412,-92.0613,10.0,0.823,177.0,,'11111222,11111222,99999999' 
WAVCIS,ioos:station:WAVCIS:CSI03:3,2012-08-05T13:00:00Z,29.4412,-92.0613,10.0,1.516,91.0,,'11111222,11111222,99999999' 
WAVCIS,ioos:station:WAVCIS:CSI03:3,2012-08-05T14:00:00Z,29.4412,-92.0613,10.0,3.379,58.0,,'11111222,11111222,99999999' 
WAVCIS,ioos:station:WAVCIS:CSI03:3,2012-08-05T15:00:00Z,29.4412,-92.0613,10.0,3.719,73.0,,'11111222,11111222,99999999' 
WAVCIS,ioos:station:WAVCIS:CSI03:3,2012-08-05T16:00:00Z,29.4412,-92.0613,10.0,4.511,98.0,,'11111222,11111222,99999999' 
WAVCIS,ioos:station:WAVCIS:CSI03:3,2012-08-05T17:00:00Z,29.4412,-92.0613,10.0,3.242,137.0,,'11111222,11111222,99999999' 
WAVCIS,ioos:station:WAVCIS:CSI03:3,2012-08-05T18:00:00Z,29.4412,-92.0613,10.0,1.405,329.0,,'11111222,11111222,99999999' 
WAVCIS,ioos:station:WAVCIS:CSI03:3,2012-08-05T19:00:00Z,29.4412,-92.0613,10.0,1.27,172.0,,'11111222,11111222,99999999' 
WAVCIS,ioos:station:WAVCIS:CSI03:3,2012-08-05T20:00:00Z,29.4412,-92.0613,10.0,1.248,182.0,,'11111222,11111222,99999999' 
WAVCIS,ioos:station:WAVCIS:CSI03:3,2012-08-05T21:00:00Z,29.4412,-92.0613,10.0,0.945,182.0,,'11111222,11111222,99999999' 
WAVCIS,ioos:station:WAVCIS:CSI03:3,2012-08-05T22:00:00Z,29.4412,-92.0613,10.0,2.042,90.0,,'11111222,11111222,99999999' 
WAVCIS,ioos:station:WAVCIS:CSI03:3,2012-08-05T23:00:00Z,29.4412,-92.0613,10.0,3.571,65.0,,'11111222,11111222,99999999' 
WAVCIS,ioos:station:WAVCIS:CSI03:3,2012-08-06T00:00:00Z,29.4412,-92.0613,10.0,2.382,118.0,,'11111222,11111222,99999999' 
WAVCIS,ioos:station:WAVCIS:CSI03:3,2012-08-06T01:00:00Z,29.4412,-92.0613,10.0,1.362,104.0,,'11111222,11111222,99999999' 
WAVCIS,ioos:station:WAVCIS:CSI03:3,2012-08-06T02:00:00Z,29.4412,-92.0613,10.0,1.895,20.0,,'11111222,11111222,99999999' 
WAVCIS,ioos:station:WAVCIS:CSI03:3,2012-08-06T03:00:00Z,29.4412,-92.0613,10.0,2.451,72.0,,'11111222,11111222,99999999' 
WAVCIS,ioos:station:WAVCIS:CSI03:3,2012-08-06T04:00:00Z,29.4412,-92.0613,10.0,2.518,87.0,,'11111222,11111222,99999999' 
WAVCIS,ioos:station:WAVCIS:CSI03:3,2012-08-06T05:00:00Z,29.4412,-92.0613,10.0,2.718,72.0,,'11111222,11111222,99999999' 
WAVCIS,ioos:station:WAVCIS:CSI03:3,2012-08-06T06:00:00Z,29.4412,-92.0613,10.0,2.634,112.0,,'11111222,11111222,99999999' 
WAVCIS,ioos:station:WAVCIS:CSI03:3,2012-08-06T07:00:00Z,29.4412,-92.0613,10.0,1.611,85.0,,'11111222,11111222,99999999' 
WAVCIS,ioos:station:WAVCIS:CSI03:3,2012-08-06T08:00:00Z,29.4412,-92.0613,10.0,3.38,134.0,,'11111222,11111222,99999999' 
WAVCIS,ioos:station:WAVCIS:CSI03:3,2012-08-06T09:00:00Z,29.4412,-92.0613,10.0,2.951,147.0,,'11111222,11111222,99999999' 
WAVCIS,ioos:station:WAVCIS:CSI03:3,2012-08-06T10:00:00Z,29.4412,-92.0613,10.0,1.565,175.0,,'11111222,11111222,99999999' 
WAVCIS,ioos:station:WAVCIS:CSI03:3,2012-08-06T11:00:00Z,29.4412,-92.0613,10.0,0.286,231.0,,'11111222,11111222,99999999' 
WAVCIS,ioos:station:WAVCIS:CSI03:3,2012-08-06T12:00:00Z,29.4412,-92.0613,10.0,2.375,55.0,,'11111222,11111222,99999999' 
WAVCIS,ioos:station:WAVCIS:CSI03:3,2012-08-06T13:00:00Z,29.4412,-92.0613,10.0,3.227,54.0,,'11111222,11111222,99999999' 
WAVCIS,ioos:station:WAVCIS:CSI03:3,2012-08-06T14:00:00Z,29.4412,-92.0613,10.0,4.031,47.0,,'11111222,11111222,99999999' 
WAVCIS,ioos:station:WAVCIS:CSI03:3,2012-08-06T15:00:00Z,29.4412,-92.0613,10.0,4.549,48.0,,'11111222,11111222,99999999' 
WAVCIS,ioos:station:WAVCIS:CSI03:3,2012-08-06T16:00:00Z,29.4412,-92.0613,10.0,3.023,37.0,,'11111222,11111222,99999999' 
WAVCIS,ioos:station:WAVCIS:CSI03:3,2012-08-06T17:00:00Z,29.4412,-92.0613,10.0,2.87,43.0,,'11111222,11111222,99999999' 
WAVCIS,ioos:station:WAVCIS:CSI03:3,2012-08-06T18:00:00Z,29.4412,-92.0613,10.0,2.585,37.0,,'11111222,11111222,99999999' 
WAVCIS,ioos:station:WAVCIS:CSI03:3,2012-08-06T19:00:00Z,29.4412,-92.0613,10.0,2.52,51.0,,'11111222,11111222,99999999' 
WAVCIS,ioos:station:WAVCIS:CSI03:3,2012-08-06T20:00:00Z,29.4412,-92.0613,10.0,2.065,81.0,,'11111222,11111222,99999999' 
WAVCIS,ioos:station:WAVCIS:CSI03:3,2012-08-06T21:00:00Z,29.4412,-92.0613,10.0,2.674,173.0,,'11111222,11111222,99999999' 
WAVCIS,ioos:station:WAVCIS:CSI03:3,2012-08-06T22:00:00Z,29.4412,-92.0613,10.0,2.061,186.0,,'11111222,11111222,99999999' 
WAVCIS,ioos:station:WAVCIS:CSI03:3,2012-08-06T23:00:00Z,29.4412,-92.0613,10.0,2.134,250.0,,'11111222,11111222,99999999' 
WAVCIS,ioos:station:WAVCIS:CSI03:3,2012-08-07T00:00:00Z,29.4412,-92.0613,10.0,3.817,274.0,,'11111222,11111222,99999999' 
WAVCIS,ioos:station:WAVCIS:CSI03:3,2012-08-07T01:00:00Z,29.4412,-92.0613,10.0,2.884,282.0,,'11111222,11111222,99999999' 
WAVCIS,ioos:station:WAVCIS:CSI03:3,2012-08-07T02:00:00Z,29.4412,-92.0613,10.0,2.141,288.0,,'11111222,11111222,99999999' 
WAVCIS,ioos:station:WAVCIS:CSI03:3,2012-08-07T03:00:00Z,29.4412,-92.0613,10.0,1.726,316.0,,'11111222,11111222,99999999' 
WAVCIS,ioos:station:WAVCIS:CSI03:3,2012-08-07T04:00:00Z,29.4412,-92.0613,10.0,3.368,251.0,,'11111222,11111222,99999999' 
WAVCIS,ioos:station:WAVCIS:CSI03:3,2012-08-07T05:00:00Z,29.4412,-92.0613,10.0,1.248,214.0,,'11111222,11111222,99999999' 
WAVCIS,ioos:station:WAVCIS:CSI03:3,2012-08-07T06:00:00Z,29.4412,-92.0613,10.0,1.537,247.0,,'11111222,11111222,99999999' 
WAVCIS,ioos:station:WAVCIS:CSI03:3,2012-08-07T07:00:00Z,29.4412,-92.0613,10.0,0.818,222.0,,'11111222,11111222,99999999' 
WAVCIS,ioos:station:WAVCIS:CSI03:3,2012-08-07T08:00:00Z,29.4412,-92.0613,10.0,2.622,256.0,,'11111222,11111222,99999999' 
WAVCIS,ioos:station:WAVCIS:CSI03:3,2012-08-07T09:00:00Z,29.4412,-92.0613,10.0,2.824,282.0,,'11111222,11111222,99999999' 
WAVCIS,ioos:station:WAVCIS:CSI03:3,2012-08-07T10:00:00Z,29.4412,-92.0613,10.0,5.652,40.0,,'11111222,11111222,99999999' 
WAVCIS,ioos:station:WAVCIS:CSI03:3,2012-08-07T11:00:00Z,29.4412,-92.0613,10.0,2.103,344.0,,'11111222,11111222,99999999' 
WAVCIS,ioos:station:WAVCIS:CSI03:3,2012-08-07T12:00:00Z,29.4412,-92.0613,10.0,2.953,353.0,,'11111222,11111222,99999999' 
WAVCIS,ioos:station:WAVCIS:CSI03:3,2012-08-07T13:00:00Z,29.4412,-92.0613,10.0,2.767,3.0,,'11111222,11111222,99999999' 
WAVCIS,ioos:station:WAVCIS:CSI03:3,2012-08-07T14:00:00Z,29.4412,-92.0613,10.0,3.102,19.0,,'11111222,11111222,99999999' 
WAVCIS,ioos:station:WAVCIS:CSI03:3,2012-08-07T15:00:00Z,29.4412,-92.0613,10.0,2.792,5.0,,'11111222,11111222,99999999' 
WAVCIS,ioos:station:WAVCIS:CSI03:3,2012-08-07T16:00:00Z,29.4412,-92.0613,10.0,3.595,20.0,,'11111222,11111222,99999999' 
WAVCIS,ioos:station:WAVCIS:CSI03:3,2012-08-07T17:00:00Z,29.4412,-92.0613,10.0,3.255,32.0,,'11111222,11111222,99999999' 
WAVCIS,ioos:station:WAVCIS:CSI03:3,2012-08-07T18:00:00Z,29.4412,-92.0613,10.0,3.478,48.0,,'11111222,11111222,99999999' 
WAVCIS,ioos:station:WAVCIS:CSI03:3,2012-08-07T19:00:00Z,29.4412,-92.0613,10.0,2.214,69.0,,'11111222,11111222,99999999' 
WAVCIS,ioos:station:WAVCIS:CSI03:3,2012-08-07T20:00:00Z,29.4412,-92.0613,10.0,1.756,163.0,,'11111222,11111222,99999999' 
WAVCIS,ioos:station:WAVCIS:CSI03:3,2012-08-07T21:00:00Z,29.4412,-92.0613,10.0,2.582,180.0,,'11111222,11111222,99999999' 
WAVCIS,ioos:station:WAVCIS:CSI03:3,2012-08-07T22:00:00Z,29.4412,-92.0613,10.0,1.872,180.0,,'11111222,11111222,99999999' 
WAVCIS,ioos:station:WAVCIS:CSI03:3,2012-08-07T23:00:00Z,29.4412,-92.0613,10.0,1.511,202.0,,'11111222,11111222,99999999' 
WAVCIS,ioos:station:WAVCIS:CSI03:3,2012-08-08T00:00:00Z,29.4412,-92.0613,10.0,2.021,248.0,,'11111222,11111222,99999999' 
WAVCIS,ioos:station:WAVCIS:CSI03:3,2012-08-08T01:00:00Z,29.4412,-92.0613,10.0,0.821,196.0,,'11111222,11111222,99999999' 
WAVCIS,ioos:station:WAVCIS:CSI03:3,2012-08-08T02:00:00Z,29.4412,-92.0613,10.0,1.772,192.0,,'11111222,11111222,99999999' 
WAVCIS,ioos:station:WAVCIS:CSI03:3,2012-08-08T03:00:00Z,29.4412,-92.0613,10.0,1.809,184.0,,'11111222,11111222,99999999' 
WAVCIS,ioos:station:WAVCIS:CSI03:3,2012-08-08T04:00:00Z,29.4412,-92.0613,10.0,2.438,182.0,,'11111222,11111222,99999999' 
WAVCIS,ioos:station:WAVCIS:CSI03:3,2012-08-08T05:00:00Z,29.4412,-92.0613,10.0,3.12,182.0,,'11111222,11111222,99999999' 
WAVCIS,ioos:station:WAVCIS:CSI03:3,2012-08-08T06:00:00Z,29.4412,-92.0613,10.0,3.242,180.0,,'11111222,11111222,99999999' 
WAVCIS,ioos:station:WAVCIS:CSI03:3,2012-08-08T07:00:00Z,29.4412,-92.0613,10.0,2.471,186.0,,'11111222,11111222,99999999' 
WAVCIS,ioos:station:WAVCIS:CSI03:3,2012-08-08T08:00:00Z,29.4412,-92.0613,10.0,1.815,179.0,,'11111222,11111222,99999999' 
WAVCIS,ioos:station:WAVCIS:CSI03:3,2012-08-08T09:00:00Z,29.4412,-92.0613,10.0,2.106,185.0,,'11111222,11111222,99999999' 
WAVCIS,ioos:station:WAVCIS:CSI03:3,2012-08-08T10:00:00Z,29.4412,-92.0613,10.0,1.733,178.0,,'11111222,11111222,99999999' 
WAVCIS,ioos:station:WAVCIS:CSI03:3,2012-08-08T11:00:00Z,29.4412,-92.0613,10.0,1.357,183.0,,'11111222,11111222,99999999' 
WAVCIS,ioos:station:WAVCIS:CSI03:3,2012-08-08T12:00:00Z,29.4412,-92.0613,10.0,1.445,184.0,,'11111222,11111222,99999999' 
WAVCIS,ioos:station:WAVCIS:CSI03:3,2012-08-08T13:00:00Z,29.4412,-92.0613,10.0,5.741,19.0,,'11111222,11111222,99999999' 
WAVCIS,ioos:station:WAVCIS:CSI03:3,2012-08-08T14:00:00Z,29.4412,-92.0613,10.0,2.421,13.0,,'11111222,11111222,99999999' 
WAVCIS,ioos:station:WAVCIS:CSI03:3,2012-08-08T15:00:00Z,29.4412,-92.0613,10.0,3.415,43.0,,'11111222,11111222,99999999' 
WAVCIS,ioos:station:WAVCIS:CSI03:3,2012-08-08T16:00:00Z,29.4412,-92.0613,10.0,4.82,77.0,,'11111222,11111222,99999999' 
WAVCIS,ioos:station:WAVCIS:CSI03:3,2012-08-08T17:00:00Z,29.4412,-92.0613,10.0,3.14,104.0,,'11111222,11111222,99999999' 
WAVCIS,ioos:station:WAVCIS:CSI03:3,2012-08-08T18:00:00Z,29.4412,-92.0613,10.0,2.542,139.0,,'11111222,11111222,99999999' 
WAVCIS,ioos:station:WAVCIS:CSI03:3,2012-08-08T19:00:00Z,29.4412,-92.0613,10.0,1.639,172.0,,'11111222,11111222,99999999' 
WAVCIS,ioos:station:WAVCIS:CSI03:3,2012-08-08T20:00:00Z,29.4412,-92.0613,10.0,1.508,157.0,,'11111222,11111222,99999999' 
WAVCIS,ioos:station:WAVCIS:CSI03:3,2012-08-08T21:00:00Z,29.4412,-92.0613,10.0,4.147,139.0,,'11111222,11111222,99999999' 
WAVCIS,ioos:station:WAVCIS:CSI03:3,2012-08-08T22:00:00Z,29.4412,-92.0613,10.0,5.468,135.0,,'11111222,11111222,99999999' 
WAVCIS,ioos:station:WAVCIS:CSI03:3,2012-08-08T23:00:00Z,29.4412,-92.0613,10.0,5.47,159.0,,'11111222,11111222,99999999' 
WAVCIS,ioos:station:WAVCIS:CSI03:3,2012-08-09T00:00:00Z,29.4412,-92.0613,10.0,2.556,175.0,,'11111222,11111222,99999999' 
WAVCIS,ioos:station:WAVCIS:CSI03:3,2012-08-09T01:00:00Z,29.4412,-92.0613,10.0,2.822,186.0,,'11111222,11111222,99999999' 
WAVCIS,ioos:station:WAVCIS:CSI03:3,2012-08-09T02:00:00Z,29.4412,-92.0613,10.0,3.091,186.0,,'11111222,11111222,99999999' 
WAVCIS,ioos:station:WAVCIS:CSI03:3,2012-08-09T03:00:00Z,29.4412,-92.0613,10.0,3.269,197.0,,'11111222,11111222,99999999' 
WAVCIS,ioos:station:WAVCIS:CSI03:3,2012-08-09T04:00:00Z,29.4412,-92.0613,10.0,3.043,198.0,,'11111222,11111222,99999999' 